Location: ??
(34.7252°N, 135.5457°E)
Time: 07:41:52
(UTC+00:00)

COSMOS 2428 - Pass Details

Date: 24 September 2020
Orbit: 844 x 859 km, 70.9° (Epoch: 28 October)

Event Time Altitude Azimuth Distance (km) Brightness Sun altitude
Rises 19:06:20 0° 179° (S) 3,396 5.7 -21.5°
Reaches altitude 10° 19:08:54 10° 172° (S) 2,467 5.1 -21.0°
Maximum altitude 19:14:08 39° 105° (ESE) 1,247 4.0 -19.9°
Drops below altitude 10° 19:19:24 10° 37° (NE) 2,489 5.8 -18.9°
Sets 19:21:59 0° 30° (NNE) 3,431 6.5 -18.4°
